Probability
0 0 0 0 0 0 0 0 0 0 0 0 0 0 0 0 0 0 0 0 0 0 0 1 2 4 5 5 4 3 1 0 0 0 0 0 0 0 0 0 0 0 0 0 0 0 0 0 0
0 0 0 0 0 0 0 0 0 0 0 0 0 0 0 0 0 0 0 0 0 0 0 1 3 4 5 6 4 3 2 1 0 0 0 0 0 0 0 0 0 0 0 0 0 0 0 0 0
0 0 0 0 0 0 0 0 0 0 0 0 0 0 0 0 0 0 0 2 2 1 0 1 3 5 6 6 5 4 3 1 0 0 0 0 0 0 0 0 0 0 0 0 0 0 0 0 0
0 0 0 0 0 0 0 0 0 0 0 0 0 0 0 0 0 0 1 3 4 2 1 2 5 6 6 6 6 5 4 2 1 0 0 0 0 0 0 0 0 0 0 0 0 0 0 0 0
0 0 0 0 0 0 0 0 0 0 0 0 0 0 0 1 0 0 1 3 4 3 2 4 6 6 6 6 6 6 5 4 2 1 0 0 0 0 0 0 0 0 0 0 0 0 0 0 0
0 0 0 0 0 0 0 0 0 0 0 0 0 0 0 0 0 0 1 2 3 3 3 5 6 6 6 6 6 6 6 5 3 1 0 0 0 0 0 0 0 0 0 0 0 0 0 0 0
0 0 0 0 0 0 0 0 0 0 0 0 0 0 0 0 0 0 0 1 2 3 3 4 6 6 5 5 6 6 5 4 3 1 0 0 0 0 0 0 0 0 0 0 0 0 0 0 0
0 0 0 0 0 0 0 0 0 0 0 0 0 0 0 0 0 0 0 1 2 2 2 3 5 5 3 3 3 3 3 2 1 1 0 0 0 0 0 0 0 0 0 0 0 0 0 0 0
0 0 0 0 0 0 0 0 0 0 0 0 0 0 0 0 0 0 0 0 1 1 1 1 3 3 2 2 2 1 1 1 0 0 0 0 0 0 0 0 0 0 0 0 0 0 0 0 0
0 0 0 0 0 0 0 0 0 0 0 0 0 0 0 0 0 0 0 0 0 0 0 0 1 2 2 2 2 2 2 1 0 0 0 0 0 0 0 0 0 0 0 0 0 0 0 0 0
0 0 0 0 0 0 0 0 0 0 0 0 0 0 0 0 0 0 0 0 0 0 0 0 0 1 1 1 2 2 2 1 0 0 0 0 0 0 0 0 0 0 0 0 0 0 0 0 0
0 0 0 0 0 0 0 0 0 0 0 0 0 0 0 0 0 0 0 0 0 0 0 0 0 0 0 0 1 1 1 0 0 0 0 0 0 0 0 0 0 0 0 0 0 0 0 0 0
0 0 0 0 0 0 0 0 0 0 0 0 0 0 0 0 0 0 0 0 0 0 0 0 0 0 0 0 0 0 0 0 0 0 0 0 0 0 0 0 0 0 0 0 0 0 0 0 0
0 0 0 0 0 0 0 0 0 0 0 0 0 0 0 0 0 0 0 0 0 0 0 0 0 0 0 0 0 0 0 0 0 0 0 0 0 0 0 0 0 0 0 0 0 0 0 0 0
0 0 0 0 0 0 0 0 0 0 0 0 0 0 0 0 0 0 0 0 0 0 0 0 0 0 0 0 0 0 0 0 0 0 0 0 0 0 0 0 0 0 0 0 0 0 0 0 0
0 0 0 0 0 0 0 0 0 0 0 0 0 0 0 0 0 0 0 0 0 0 0 0 0 0 0 0 0 0 0 0 0 0 0 0 0 0 0 0 0 0 0 0 0 0 0 0 0
0 0 0 0 0 0 0 0 0 0 0 0 0 0 0 0 0 0 0 0 0 0 0 0 0 0 0 0 0 0 0 0 0 0 0 0 0 0 0 0 0 0 0 0 0 0 0 0 0
0 0 0 0 0 0 0 0 0 0 0 0 0 0 0 0 0 0 0 0 0 0 0 0 0 0 0 0 0 0 0 0 0 0 0 0 0 0 0 0 0 0 0 0 0 0 0 0 0
0 0 0 0 0 0 0 0 0 0 0 0 0 0 0 0 0 0 0 0 0 0 0 0 0 0 0 0 0 0 0 0 0 0 0 0 0 0 0 0 0 0 0 0 0 0 0 0 0
0 0 0 0 0 0 0 0 0 0 0 0 0 0 0 0 0 0 0 0 0 0 0 0 0 0 0 0 0 0 0 0 0 0 0 0 0 0 0 0 0 0 0 0 0 0 0 0 0
0 0 0 0 0 0 0 0 0 0 0 0 0 0 0 0 0 0 0 0 0 0 0 0 0 0 0 0 0 0 0 0 0 0 0 0 0 0 0 0 0 0 0 0 0 0 0 0 0
0 0 0 0 0 0 0 0 0 0 0 0 0 0 0 0 0 0 0 0 0 0 0 0 0 0 0 0 0 0 0 0 0 0 0 0 0 0 0 0 0 0 0 0 0 0 0 0 0
0 0 0 0 0 0 0 0 0 0 0 0 0 0 0 0 0 0 0 0 0 0 0 0 0 0 0 0 0 0 0 0 0 0 0 0 0 0 0 0 0 0 0 0 0 0 0 0 0
0 0 0 0 0 0 0 0 0 0 0 0 0 0 0 0 0 0 0 0 0 0 0 0 0 0 0 0 0 0 0 0 0 0 0 0 0 0 0 0 0 0 0 0 0 0 0 0 0
0 0 0 0 0 0 0 0 0 0 0 0 0 0 0 0 0 0 0 0 0 0 0 0 0 0 0 0 0 0 0 0 0 0 0 0 0 0 0 0 0 0 0 0 0 0 0 0 0
0 0 0 0 0 0 0 0 0 0 0 0 0 0 0 0 0 0 0 0 0 0 0 0 0 0 0 0 0 0 0 0 0 0 0 0 0 0 0 0 0 0 0 0 0 0 0 0 0
0 0 0 0 0 0 0 0 0 0 0 0 0 0 0 0 0 0 0 0 0 0 0 0 0 0 0 0 0 0 0 0 0 0 0 0 0 0 0 0 0 0 0 0 0 0 0 0 0
0 0 0 0 0 0 0 0 0 0 0 0 0 0 0 0 0 0 0 0 0 0 0 0 0 0 0 0 0 0 0 0 0 0 0 0 0 0 0 0 0 0 0 0 0 0 0 0 0
0 0 0 0 0 0 0 0 0 0 0 0 0 0 0 0 0 0 0 0 0 0 0 0 0 0 0 0 0 0 0 0 0 0 0 0 0 0 0 0 0 0 0 0 0 0 0 0 0
0 0 0 0 0 0 0 0 0 0 0 0 0 0 0 0 0 0 0 0 0 0 0 0 0 0 0 0 0 0 0 0 0 0 0 0 0 0 0 0 0 0 0 0 0 0 0 0 0
Wind_Speed
13 8 1 4 6 5 1 2 1 1 2 1 3 6 7 5 3 4 1 3 4 3 2 2 5 8 9 9 9 9 9 10 10 10 10 10 11 11 11 10 10 10 11 11 11 11 11 11 10
6 4 4 5 5 2 2 1 1 1 2 2 4 5 6 4 3 4 2 2 5 4 3 2 6 8 8 9 9 9 9 9 9 10 10 10 10 10 10 10 10 10 10 11 11 11 11 10 10
5 1 4 5 3 4 3 2 2 1 2 2 3 4 4 3 2 2 1 4 5 4 2 3 7 8 8 8 8 8 8 8 9 9 10 10 10 10 10 10 10 11 10 10 10 10 10 10 10
2 4 5 5 2 2 2 2 1 2 3 4 4 4 3 2 1 2 3 6 6 4 3 3 7 8 8 8 8 8 9 9 9 9 9 9 9 10 10 10 10 10 10 10 10 10 10 10 10
3 4 4 2 1 1 0 0 1 2 1 2 3 4 2 3 3 4 4 6 6 4 3 3 6 7 8 8 7 8 8 8 8 8 8 8 9 9 9 9 9 9 10 10 10 10 10 9 10
4 4 4 2 2 1 1 2 1 3 2 2 3 3 1 1 3 3 4 4 5 5 4 3 5 6 7 7 8 7 7 8 8 8 8 8 8 8 8 8 8 9 9 9 10 9 9 9 9
4 4 3 3 2 1 1 2 2 2 1 0 2 4 2 0 1 3 4 5 5 4 4 3 2 4 5 6 7 7 8 8 8 8 8 8 8 8 8 8 8 8 8 9 9 9 9 9 9
3 5 3 2 2 2 1 1 1 2 1 1 2 4 3 3 2 4 5 5 4 4 3 3 2 3 3 3 6 7 8 8 8 8 8 8 7 7 7 7 7 7 8 8 8 9 9 9 9
3 5 2 2 3 2 0 2 2 2 3 2 2 1 2 4 4 5 4 3 3 3 2 2 2 2 2 3 5 5 6 7 7 6 7 6 3 3 4 5 7 7 7 7 8 8 9 9 8
5 4 2 1 2 2 1 1 0 2 2 2 2 2 4 5 5 5 4 3 2 2 2 2 2 2 2 2 2 2 3 3 3 3 3 3 2 2 3 5 6 6 7 7 7 8 8 6 4
4 4 2 1 1 1 1 1 0 3 0 3 3 4 5 4 4 4 4 3 3 2 2 2 2 2 2 1 1 1 1 1 2 2 2 2 2 2 2 2 2 3 4 3 4 4 3 3 3
4 2 1 0 2 2 1 0 1 1 4 3 4 6 6 6 5 5 5 4 3 3 2 2 2 2 2 2 1 1 1 1 1 1 2 2 2 2 2 1 1 2 1 2 2 2 3 3 3
4 2 2 3 4 2 2 1 1 2 3 1 3 5 6 5 4 3 4 3 3 3 3 3 2 2 2 2 1 1 1 1 1 1 1 2 1 1 1 1 1 1 1 1 1 2 2 3 2
3 3 1 2 2 2 1 1 0 3 1 1 3 5 5 5 5 4 4 4 4 4 4 3 3 3 2 2 2 1 1 1 1 1 1 1 1 1 1 1 1 1 1 1 1 1 2 1 2
3 4 3 2 1 1 1 3 3 4 1 2 2 3 4 4 4 5 6 5 5 4 4 3 3 3 3 2 2 1 1 2 1 1 1 1 1 1 1 1 1 1 0 1 1 1 1 2 2
3 4 2 3 1 1 2 5 4 2 3 3 3 3 4 5 5 5 5 4 5 5 4 3 3 3 3 2 2 1 1 1 1 1 1 1 1 2 1 1 0 1 0 1 1 1 1 1 2
4 2 1 3 1 1 1 6 5 2 3 3 3 3 4 4 4 4 4 3 4 5 5 4 3 3 3 2 1 1 1 0 1 1 1 1 1 2 2 1 0 0 1 0 1 1 0 1 2
1 1 1 3 2 1 2 6 7 3 3 4 4 3 4 4 5 3 3 3 3 3 4 4 3 3 2 2 1 1 1 0 0 0 1 1 1 2 2 1 0 0 0 1 0 0 1 0 1
2 2 1 3 2 2 4 7 7 4 2 4 3 3 4 5 4 2 2 3 2 3 3 3 3 3 2 2 2 1 1 1 0 0 1 0 0 1 2 1 1 1 1 0 1 1 0 0 1
3 2 1 3 2 2 3 7 5 3 4 4 4 4 4 3 3 2 2 2 3 3 4 4 4 3 3 2 2 2 1 1 1 0 1 1 0 0 1 2 1 1 1 0 0 1 1 0 0
2 2 1 2 4 3 3 6 4 2 1 2 2 2 2 3 4 3 3 3 2 3 4 4 3 3 2 2 1 1 1 0 0 1 1 1 0 0 0 1 1 1 2 2 1 1 1 1 1
1 1 1 0 3 3 2 4 7 3 3 2 3 2 3 3 3 3 3 3 3 4 3 3 3 2 2 2 3 3 3 2 2 1 1 1 1 1 0 0 0 1 1 2 2 1 1 2 2
2 1 1 0 1 2 2 1 9 3 3 4 3 3 4 4 3 3 3 4 3 3 3 2 2 2 2 2 3 3 2 2 1 1 0 1 1 1 0 0 0 0 1 1 1 2 2 2 2
1 2 2 3 3 2 2 2 7 3 4 5 3 3 4 3 3 3 2 2 1 1 2 2 3 3 3 3 3 4 4 3 2 2 1 1 1 1 1 0 0 1 1 1 1 1 2 2 2
4 4 5 6 5 4 2 2 8 6 5 4 4 4 3 3 2 2 2 1 1 2 2 3 3 3 3 3 3 4 5 4 4 3 2 2 1 1 1 1 1 1 1 1 1 1 2 2 2
1 3 5 2 3 5 3 5 7 4 4 3 2 2 2 3 2 3 3 2 2 3 3 3 3 3 3 3 3 3 3 3 3 3 3 2 2 2 2 1 1 1 1 2 1 1 2 2 2
1 1 2 4 1 3 5 7 8 3 3 3 2 2 3 3 3 3 2 2 2 3 3 4 4 3 3 3 2 2 3 3 3 2 2 2 2 1 1 1 1 1 2 2 1 1 2 2 2
1 3 3 4 2 3 6 5 5 4 5 4 3 3 4 3 3 3 2 2 3 2 2 2 3 3 2 2 2 2 2 2 2 2 2 2 2 1 1 1 1 2 2 2 2 2 2 2 3
1 1 2 2 3 3 4 8 6 5 4 4 5 4 4 4 3 3 3 2 2 2 2 2 2 2 2 2 2 2 2 2 2 2 2 2 2 1 2 2 2 2 2 2 2 3 3 3 3
2 3 4 3 3 3 3 10 4 4 4 4 5 4 4 3 3 3 3 2 2 2 2 2 2 2 2 2 1 1 1 1 1 2 2 2 2 1 2 1 1 2 2 3 3 3 3 3 4
Wind_Direction
328 321 359 57 59 60 162 256 147 37 50 48 59 83 96 93 108 134 118 116 112 126 132 120 90 94 90 88 85 85 86 85 84 81 76 74 74 72 73 70 68 68 68 67 65 64 63 58 51
319 331 46 59 90 118 249 255 158 231 168 119 61 69 77 75 58 94 100 124 124 123 122 120 91 95 92 90 89 87 86 87 85 82 79 76 74 72 71 68 67 67 67 66 65 63 59 54 51
315 41 71 75 107 168 196 204 164 102 61 80 68 52 83 97 98 121 148 129 113 106 98 106 93 98 97 93 93 91 88 87 87 85 82 78 74 72 71 68 66 64 63 62 62 60 57 53 51
34 50 57 78 148 217 195 201 183 127 44 43 89 74 58 39 127 139 131 122 111 95 85 93 89 95 99 99 96 94 89 86 85 85 84 81 77 73 71 68 67 64 61 59 59 57 54 53 51
59 77 73 74 210 243 251 243 185 119 87 36 74 95 60 354 63 100 111 116 113 100 83 95 88 89 89 89 92 94 91 86 83 82 82 80 77 73 71 68 65 63 61 59 58 55 52 51 52
58 75 100 170 218 245 332 334 84 67 90 52 81 103 114 60 80 98 103 104 108 108 92 92 83 83 85 87 85 85 88 86 83 80 79 78 75 72 69 67 64 62 60 57 55 52 49 48 49
100 98 134 164 181 240 295 343 87 92 71 32 113 117 132 244 94 105 104 101 100 104 99 86 85 83 79 79 79 77 75 77 77 77 72 68 68 65 60 60 62 61 59 56 53 50 46 46 48
113 103 111 154 175 226 329 19 52 81 136 20 71 131 180 207 149 102 99 99 97 93 94 87 71 74 80 83 77 74 71 70 68 67 64 61 60 59 56 55 58 59 56 53 51 48 47 47 45
76 83 144 187 183 223 340 44 5 25 86 60 56 133 177 149 124 105 96 86 90 91 85 89 77 71 86 94 84 79 74 70 68 63 62 59 47 49 52 51 57 57 54 51 48 47 49 44 40
66 115 178 200 189 191 170 95 140 50 46 57 56 63 117 129 130 131 133 135 131 138 127 111 102 87 85 96 95 87 82 78 71 64 56 50 45 42 55 52 56 53 47 44 44 45 43 37 26
69 127 149 63 103 139 116 54 270 122 223 203 193 171 147 144 143 155 157 163 172 169 153 140 131 122 105 95 107 84 79 81 73 67 63 56 51 43 42 48 45 42 42 35 32 30 26 27 25
79 53 92 35 16 63 127 129 354 178 227 229 195 173 159 164 170 178 177 176 171 162 169 155 134 128 123 116 117 118 106 97 87 78 79 80 61 48 37 47 43 41 39 35 28 26 21 30 31
79 81 47 53 41 57 97 131 240 265 258 192 161 165 170 175 180 193 186 178 175 176 179 170 159 154 149 140 138 131 143 134 126 102 82 89 91 69 49 25 44 47 43 42 32 30 29 30 25
102 94 51 16 29 25 60 305 45 269 242 110 156 175 179 186 187 192 193 192 194 192 187 180 168 166 154 153 155 152 154 143 132 113 99 106 106 95 86 36 14 41 52 37 39 37 32 21 15
97 70 25 3 1 330 27 330 251 250 146 162 193 202 205 208 204 203 202 199 198 193 184 179 175 161 157 161 158 150 163 145 144 144 140 129 119 121 113 97 13 350 51 66 62 57 47 35 20
58 58 10 313 344 345 73 275 268 230 166 210 228 230 226 224 214 211 207 201 197 187 181 188 180 161 160 165 162 158 172 161 164 162 160 148 130 126 121 106 10 355 6 117 103 73 40 23 6
38 54 288 301 326 17 142 258 273 229 183 222 239 245 243 237 233 221 205 203 199 191 182 187 183 176 172 168 156 155 137 190 198 179 178 178 152 137 139 138 192 33 24 105 114 63 46 11 353
189 212 259 272 306 358 255 262 278 250 207 231 247 250 249 241 238 219 207 208 202 192 184 184 181 173 161 147 128 108 77 337 294 254 224 201 180 160 145 136 150 141 66 17 105 111 26 281 314
142 143 248 268 306 321 266 272 279 266 227 239 247 248 256 259 253 221 210 216 197 196 185 179 178 181 162 160 161 169 207 230 289 289 297 233 190 178 159 156 169 169 173 261 206 155 114 341 17
96 93 323 308 336 312 301 292 275 243 221 223 225 238 251 274 297 266 240 223 209 202 195 184 187 195 194 193 178 169 166 191 205 289 328 356 35 104 183 174 191 200 190 213 264 169 180 243 70
57 146 230 296 330 343 338 319 309 285 256 258 240 237 248 243 260 272 255 231 224 225 214 202 202 203 198 175 145 123 97 29 344 324 308 330 330 356 116 189 200 206 200 212 248 208 183 214 244
288 232 171 348 21 328 25 311 300 297 295 273 273 276 269 267 263 268 258 249 233 232 222 203 194 190 195 178 170 174 186 208 226 221 245 308 314 313 299 270 209 227 229 223 241 234 211 200 227
226 275 271 267 95 342 360 227 287 317 289 280 267 264 274 271 261 260 244 236 235 223 207 205 191 192 197 190 186 183 200 213 206 188 212 269 300 308 330 335 284 261 252 244 247 261 227 211 222
263 19 34 44 66 341 268 188 282 268 259 283 276 262 270 284 276 268 255 233 244 221 194 200 199 209 202 196 194 190 197 201 195 209 209 232 257 282 312 281 262 270 260 253 253 248 238 228 230
37 67 29 7 10 265 292 232 255 263 262 265 265 268 277 283 283 279 268 254 252 230 212 205 204 218 211 203 205 203 201 197 202 208 203 207 229 271 272 245 234 252 258 256 269 259 241 233 234
358 105 135 192 256 290 319 251 258 275 285 287 261 265 294 293 285 273 260 243 241 243 231 211 210 218 211 206 212 205 196 197 206 201 193 204 216 231 234 230 239 257 266 264 254 265 242 244 244
95 93 137 128 60 299 283 285 296 284 310 318 303 306 297 293 290 283 279 269 252 244 241 219 208 214 215 205 199 194 187 190 198 193 187 203 213 218 221 226 236 260 265 259 242 258 259 251 250
133 145 97 108 121 292 297 278 261 271 279 296 294 284 281 284 291 291 283 276 270 258 256 243 215 214 211 203 203 201 193 192 189 188 198 202 205 200 212 240 245 254 274 271 243 253 259 254 258
112 123 120 125 155 175 284 275 228 228 239 252 263 268 267 265 269 272 274 271 274 287 279 260 245 230 218 208 196 191 194 186 181 194 209 211 206 200 215 237 250 259 272 278 258 253 252 252 264
199 190 158 160 230 205 232 270 260 236 244 247 263 274 272 268 268 266 272 282 284 283 276 263 258 239 227 203 176 180 188 172 175 208 218 208 216 214 218 231 256 268 273 271 254 253 251 247 257